Regional Weather Roundup
Issued by NWS

Home | Current Version | Previous Version | Text Only | Print | Product List | Glossary On
Versions: 1 2 3 4 5 6 7 8 9 10 11 12 13 14 15 16 17 18 19 20 21 22 23 24 25 26 27 28
000
ASUS45 KSLC 230910
RWRUT

UTAH REGIONAL WEATHER ROUNDUP
NATIONAL WEATHER SERVICE SALT LAKE CITY UT
300 AM MDT SAT JUL 23 2016

UTZ001>011-023>025-231000-

NORTHERN UTAH

CITY           SKY/WX    TMP DP  RH WIND       PRES   REMARKS
BRIGHAM CITY     N/A     69  33  26 S3        30.11R
HILL AFB       PTCLDY    72  35  26 N3        30.13R
LOGAN          CLEAR     56  42  59 CALM      30.14R
OGDEN          CLEAR     72  35  25 NW8       30.10R
PROVO AIRPORT  CLEAR     70  55  60 NW5       30.09S
SALT LAKE CITY MOCLDY    71  42  35 MISG      30.09R
VERNAL         CLEAR     63  50  62 W6        30.18F
WENDOVER       CLEAR     75  32  20 N5        30.14S
HEBER CITY     CLEAR     55  46  71 CALM      30.17F

$$

UTZ012>022-026-027-231000-

SOUTHERN/CENTRAL UTAH

CITY           SKY/WX    TMP DP  RH WIND       PRES   REMARKS
BLANDING       PTCLDY    66  48  52 N9        30.31S
BRYCE CANYON   PTCLDY    51  46  83 W6        30.38S
CEDAR CITY     CLEAR     75  36  24 S10       30.17F
DELTA          CLEAR     72  27  18 N10       30.09R
MILFORD        CLEAR     74  33  22 W3        30.11S
MOAB/CYNLANDS  PTCLDY    76  52  43 E6        30.11S
PRICE          PTCLDY    63  49  60 NE9       30.22S
ST GEORGE      SUNNY     90  46  22 SE14      29.97S
KANAB          PTCLDY    79  48  34 SW9       30.19S

$$

REGIONAL REPORTS     COLORADO/ARIZONA

CITY           SKY/WX    TMP DP  RH WIND       PRES   REMARKS
CRAIG, CO      CLOUDY    56  48  74 SE3       30.27R
GRAND JUNCTION CLOUDY    69  55  60 E15       30.14F
RIFLE          CLOUDY    64  54  69 SW6       30.22S
MONTROSE       CLOUDY    64  50  60 S7        30.28S
CORTEZ         CLOUDY    63  48  58 CALM      30.26R
PAGE, AZ       PTCLDY    83  46  27 S5        30.09F
GRAND CANYON   MOCLDY    60  53  77 CALM      30.32F
KINGMAN        MOCLDY    83  48  29 SE14      30.02F
FLAGSTAFF      CLOUDY    61  50  67 CALM      30.33F

$$

REGIONAL REPORTS    NEVADA/IDAHO/WYOMING

CITY           SKY/WX    TMP DP  RH WIND       PRES   REMARKS
LAS VEGAS, NV  PTCLDY    93  25   8 S8        29.82F
ELY            CLEAR     52  19  27 S12       30.26F
ELKO           CLEAR     57  18  21 CALM      30.20S
POCATELLO, ID  CLEAR     64  34  32 SW14      30.14R
BURLEY         CLEAR     54  43  66 CALM      30.13R
EVANSTON, WY   CLOUDY    65  30  27 N5        30.30F
ROCK SPRINGS   CLOUDY    67  37  33 W14       30.24R
KEMMERER         N/A     55  32  41 NW5       30.30F

$$




USA.gov is the U.S. government's official web portal to all federal, state and local government web resources and services.